When you browse on this site, cookies collect data to enhance your experience and personalize the content and advertising you see.
Visit our Privacy Policy to learn more. By continuing to use the site, you agree to this use of cookies and data.
  • Em Portugal
  • Lista de países
  • Para 7 dias
  • Temperatura da água
  • Mapa do tempo
  • Widgets de tempo
  • user-avatar
    Iniciar Sessão

    Previsão horária em Igrah

    Hoje, 23 Setembro, Segunda-feira

    Tempo Temperatura Precipitação Vento Pressão Humidade
    00:00 +2°C° 0 mm 3 m/s 615 mmHg 59%
    01:00 +3°C° 0 mm 2 m/s 615 mmHg 58%
    02:00 +3°C° 0 mm 2 m/s 614 mmHg 57%
    03:00 +3°C° 0 mm 2 m/s 615 mmHg 57%
    04:00 +4°C° 0 mm 2 m/s 614 mmHg 56%
    05:00 +4°C° 0 mm 2 m/s 614 mmHg 54%
    06:00 +5°C° 0 mm 1 m/s 614 mmHg 53%
    07:00 +7°C° 0 mm 1 m/s 615 mmHg 52%
    08:00 +9°C° 0 mm 1 m/s 616 mmHg 50%
    09:00 +12°C° 0 mm 1 m/s 617 mmHg 45%
    10:00 +12°C° 0 mm 2 m/s 617 mmHg 46%
    11:00 +13°C° 0 mm 2 m/s 617 mmHg 46%
    12:00 +13°C° 0 mm 3 m/s 617 mmHg 46%
    13:00 +14°C° 0 mm 2 m/s 617 mmHg 47%
    14:00 +14°C° 0 mm 2 m/s 617 mmHg 48%
    15:00 +14°C° 0 mm 2 m/s 616 mmHg 49%
    16:00 +10°C° 0 mm 2 m/s 616 mmHg 59%
    17:00 +9°C° 0 mm 1 m/s 615 mmHg 68%
    18:00 +7°C° 0 mm 1 m/s 614 mmHg 77%
    19:00 +7°C° 0 mm 1 m/s 614 mmHg 72%
    20:00 +6°C° 0 mm 1 m/s 614 mmHg 67%
    21:00 +6°C° 0 mm 1 m/s 614 mmHg 61%
    22:00 +6°C° 0 mm 1 m/s 614 mmHg 59%
    23:00 +6°C° 0 mm 1 m/s 614 mmHg 57%

    Amanhã, 24 Setembro, Terça-feira

    Tempo Temperatura Precipitação Vento Pressão Humidade
    00:00 +6°C° 0 mm 1 m/s 614 mmHg 55%
    01:00 +6°C° 0 mm 1 m/s 614 mmHg 55%
    02:00 +6°C° 0 mm 1 m/s 614 mmHg 55%
    03:00 +5°C° 0 mm 2 m/s 614 mmHg 55%
    04:00 +5°C° 0 mm 2 m/s 614 mmHg 56%
    05:00 +5°C° 0 mm 2 m/s 614 mmHg 57%
    06:00 +6°C° 0 mm 2 m/s 614 mmHg 58%
    07:00 +8°C° 0 mm 2 m/s 615 mmHg 55%
    08:00 +10°C° 0 mm 2 m/s 617 mmHg 51%
    09:00 +13°C° 0 mm 2 m/s 618 mmHg 48%
    10:00 +14°C° 0 mm 2 m/s 618 mmHg 47%
    11:00 +15°C° 0 mm 2 m/s 617 mmHg 47%
    12:00 +16°C° 0 mm 3 m/s 617 mmHg 47%
    13:00 +16°C° 0 mm 3 m/s 617 mmHg 48%
    14:00 +14°C° 0 mm 3 m/s 617 mmHg 50%
    15:00 +15°C° 0 mm 2 m/s 617 mmHg 52%
    16:00 +13°C° 0 mm 2 m/s 616 mmHg 62%
    17:00 +11°C° 0 mm 1 m/s 615 mmHg 71%
    18:00 +9°C° 0 mm 1 m/s 614 mmHg 81%
    19:00 +9°C° 0 mm 1 m/s 614 mmHg 75%
    20:00 +9°C° 0 mm 1 m/s 614 mmHg 68%
    21:00 +9°C° 0 mm 1 m/s 614 mmHg 62%
    22:00 +8°C° 0 mm 2 m/s 614 mmHg 62%
    23:00 +7°C° 0 mm 2 m/s 614 mmHg 62%

    Depois de amanhã, 25 Setembro, Quarta-feira

    Tempo Temperatura Precipitação Vento Pressão Humidade
    00:00 +7°C° 0 mm 2 m/s 613 mmHg 62%
    01:00 +7°C° 0 mm 2 m/s 613 mmHg 61%
    02:00 +7°C° 0 mm 2 m/s 613 mmHg 60%
    03:00 +7°C° 0 mm 2 m/s 613 mmHg 59%
    04:00 +8°C° 0 mm 2 m/s 613 mmHg 58%
    05:00 +8°C° 0 mm 2 m/s 613 mmHg 57%
    06:00 +8°C° 0 mm 2 m/s 613 mmHg 56%
    07:00 +10°C° 0 mm 2 m/s 614 mmHg 51%
    08:00 +14°C° 0 mm 2 m/s 615 mmHg 47%
    09:00 +16°C° 0 mm 2 m/s 617 mmHg 42%
    10:00 +17°C° 0 mm 2 m/s 617 mmHg 44%
    11:00 +17°C° 0 mm 3 m/s 617 mmHg 46%
    12:00 +18°C° 0 mm 3 m/s 617 mmHg 47%
    13:00 +17°C° 0 mm 3 m/s 617 mmHg 50%
    14:00 +17°C° 0 mm 3 m/s 616 mmHg 52%
    15:00 +17°C° 0 mm 3 m/s 616 mmHg 54%
    16:00 +15°C° 0 mm 2 m/s 616 mmHg 61%
    17:00 +13°C° 0 mm 2 m/s 615 mmHg 68%
    18:00 +11°C° 0 mm 1 m/s 614 mmHg 75%
    19:00 +11°C° 0 mm 1 m/s 614 mmHg 72%
    20:00 +11°C° 0 mm 1 m/s 615 mmHg 70%
    21:00 +10°C° 0 mm 1 m/s 615 mmHg 67%
    22:00 +10°C° 0 mm 1 m/s 615 mmHg 65%
    23:00 +10°C° 0 mm 1 m/s 615 mmHg 63%

    26 Setembro, Quinta-feira

    Tempo Temperatura Precipitação Vento Pressão Humidade
    00:00 +10°C° 0 mm 1 m/s 615 mmHg 61%
    01:00 +10°C° 0 mm 1 m/s 615 mmHg 61%
    02:00 +10°C° 0 mm 1 m/s 614 mmHg 61%
    03:00 +9°C° 0 mm 2 m/s 614 mmHg 61%
    04:00 +9°C° 0 mm 2 m/s 614 mmHg 61%
    05:00 +9°C° 0 mm 2 m/s 614 mmHg 61%
    06:00 +9°C° 0 mm 2 m/s 614 mmHg 61%
    07:00 +12°C° 0 mm 2 m/s 615 mmHg 57%
    08:00 +15°C° 0 mm 2 m/s 616 mmHg 52%
    09:00 +17°C° 0 mm 2 m/s 617 mmHg 47%
    10:00 +17°C° 0 mm 2 m/s 617 mmHg 46%
    11:00 +18°C° 0 mm 3 m/s 617 mmHg 44%
    12:00 +19°C° 0 mm 3 m/s 618 mmHg 43%
    13:00 +18°C° 0 mm 3 m/s 617 mmHg 44%
    14:00 +18°C° 0 mm 3 m/s 617 mmHg 45%
    15:00 +18°C° 0 mm 3 m/s 616 mmHg 46%
    16:00 +16°C° 0 mm 2 m/s 616 mmHg 54%
    17:00 +14°C° 0 mm 2 m/s 615 mmHg 63%
    18:00 +12°C° 0 mm 1 m/s 614 mmHg 71%
    19:00 +12°C° 0 mm 1 m/s 614 mmHg 71%
    20:00 +11°C° 0 mm 1 m/s 615 mmHg 72%
    21:00 +11°C° 0 mm 1 m/s 615 mmHg 73%
    22:00 +11°C° 0 mm 1 m/s 614 mmHg 74%
    23:00 +10°C° 0 mm 2 m/s 614 mmHg 75%

    27 Setembro, Sexta-feira

    Tempo Temperatura Precipitação Vento Pressão Humidade
    00:00 +9°C° 0 mm 2 m/s 614 mmHg 77%
    01:00 +9°C° 0 mm 2 m/s 614 mmHg 76%
    02:00 +9°C° 0 mm 2 m/s 614 mmHg 76%
    03:00 +9°C° 0 mm 2 m/s 614 mmHg 76%
    04:00 +9°C° 0 mm 2 m/s 614 mmHg 75%
    05:00 +9°C° 0 mm 2 m/s 614 mmHg 75%
    06:00 +10°C° 0 mm 1 m/s 614 mmHg 75%
    07:00 +12°C° 0 mm 2 m/s 615 mmHg 69%
    08:00 +14°C° 0 mm 2 m/s 616 mmHg 64%
    09:00 +17°C° 0 mm 2 m/s 617 mmHg 59%
    10:00 +17°C° 0 mm 3 m/s 617 mmHg 56%
    11:00 +18°C° 0 mm 3 m/s 617 mmHg 54%
    12:00 +18°C° 0 mm 3 m/s 617 mmHg 51%
    13:00 +18°C° 0 mm 3 m/s 617 mmHg 51%
    14:00 +18°C° 0 mm 3 m/s 616 mmHg 51%
    15:00 +18°C° 0 mm 3 m/s 616 mmHg 51%
    16:00 +16°C° 0 mm 2 m/s 615 mmHg 58%
    17:00 +15°C° 0 mm 2 m/s 615 mmHg 66%
    18:00 +13°C° 0 mm 1 m/s 614 mmHg 73%
    19:00 +13°C° 0 mm 1 m/s 614 mmHg 72%
    20:00 +13°C° 0 mm 1 m/s 614 mmHg 71%
    21:00 +12°C° 0 mm 1 m/s 614 mmHg 70%
    22:00 +12°C° 0 mm 1 m/s 614 mmHg 72%
    23:00 +12°C° 0 mm 1 m/s 614 mmHg 74%

    28 Setembro, Sábado

    Tempo Temperatura Precipitação Vento Pressão Humidade
    00:00 +12°C° 0 mm 2 m/s 614 mmHg 76%
    01:00 +12°C° 0 mm 2 m/s 614 mmHg 78%
    02:00 +12°C° 0 mm 2 m/s 613 mmHg 79%
    03:00 +10°C° 0 mm 2 m/s 613 mmHg 80%
    04:00 +10°C° 0 mm 2 m/s 613 mmHg 79%
    05:00 +10°C° 0 mm 2 m/s 612 mmHg 79%
    06:00 +10°C° 0 mm 2 m/s 612 mmHg 78%
    07:00 +13°C° 0 mm 2 m/s 613 mmHg 71%
    08:00 +15°C° 0 mm 2 m/s 614 mmHg 63%
    09:00 +17°C° 0 mm 3 m/s 614 mmHg 55%
    10:00 +17°C° 0.2 mm 3 m/s 614 mmHg 59%
    11:00 +16°C° 0.2 mm 3 m/s 614 mmHg 63%
    12:00 +16°C° 0.2 mm 3 m/s 614 mmHg 67%
    13:00 +14°C° 0.5 mm 3 m/s 614 mmHg 69%
    14:00 +13°C° 0.5 mm 3 m/s 613 mmHg 70%
    15:00 +12°C° 0.5 mm 3 m/s 613 mmHg 72%
    16:00 +11°C° 0 mm 3 m/s 613 mmHg 78%
    17:00 +9°C° 0 mm 2 m/s 613 mmHg 83%
    18:00 +8°C° 0 mm 2 m/s 613 mmHg 89%
    19:00 +9°C° 0 mm 1 m/s 613 mmHg 90%
    20:00 +9°C° 0 mm 1 m/s 614 mmHg 90%
    21:00 +9°C° 0 mm 1 m/s 614 mmHg 91%
    22:00 +8°C° 0 mm 1 m/s 614 mmHg 91%
    23:00 +8°C° 0 mm 1 m/s 614 mmHg 91%
    Mostrar mais